Location: Pace/Milton
(30.6162°N, 87.1503°W)
Time: 11:15:37
(UTC-06:00)

N. Korean satellite - Pass Details

Date: 30 November 2021
Orbit: 447 x 491 km, 97.3° (Epoch: 21 January)

Event Time Altitude Azimuth Distance (km) Brightness Sun altitude
Rises 05:30:29 0° 356° (N) 2,456 9.9 -12.3°
Reaches altitude 10° 05:32:44 10° 343° (NNW) 1,577 8.8 -11.8°
Maximum altitude 05:35:33 25° 286° (WNW) 942 7.4 -11.2°
Drops below altitude 10° 05:38:21 10° 229° (SW) 1,565 8.8 -10.7°
Sets 05:40:35 0° 216° (SW) 2,433 10.0 -10.2°
